FW0554 Weather Reports


time (UTC)temp
C
wind
direction
speed
KPH
gust
KPH
rain 1hr
cm
rain 24hr
cm
rain mn
cm
humidity
%
barometer
mb
20260505121342 17 266 3.2 14.5 0.00 0.00 0.00 69 1004.5
20260505115859 17 227 3.2 12.9 0.00 0.00 0.00 70 1004.4
20260505115349 16 260 4.8 11.3 0.00 0.00 0.00 71 1004.4
20260505113859 16 253 3.2 11.3 0.00 0.00 0.00 73 1004.4
20260505112859 15 270 1.6 9.7 0.00 0.00 0.00 76 1004.3
20260505111859 13 230 1.6 6.4 0.00 0.00 0.00 82 1004.2
20260505110857 12 253 0.0 3.2 0.00 0.00 0.00 85 1004.1
20260505101902 12 243 0.0 0.0 0.00 0.00 0.00 81 1003.7
20260505100859 12 243 0.0 0.0 0.00 0.00 0.00 81 1003.6
20260505095900 12 243 0.0 0.0 0.00 0.00 0.00 80 1003.6
20260505094858 12 243 0.0 0.0 0.00 0.00 0.00 79 1003.5
20260505093854 12 243 0.0 0.0 0.00 0.00 0.00 78 1003.3
20260505092852 13 242 0.0 0.0 0.00 0.00 0.00 77 1003.3
20260505092327 13 242 0.0 0.0 0.00 0.00 0.00 76 1003.2
20260505090851 13 243 0.0 0.0 0.00 0.00 0.00 75 1003.3
20260505085848 13 243 0.0 0.0 0.00 0.00 0.00 75 1003.3
20260505084850 13 243 0.0 0.0 0.00 0.00 0.00 74 1003.2
20260505083847 14 242 0.0 0.0 0.00 0.00 0.00 73 1003.2
20260505082847 14 242 0.0 0.0 0.00 0.00 0.00 73 1003.0
20260505081846 14 243 0.0 0.0 0.00 0.00 0.00 72 1003.0
20260505080846 15 243 0.0 0.0 0.00 0.00 0.00 71 1002.9
20260505075842 15 243 0.0 0.0 0.00 0.00 0.00 71 1003.0
20260505074840 15 258 0.0 3.2 0.00 0.00 0.00 71 1002.9
20260505073840 15 260 0.0 6.4 0.00 0.00 0.00 70 1002.8
20260505072836 15 253 0.0 8.0 0.00 0.00 0.00 70 1002.7
20260505071836 15 259 0.0 4.8 0.00 0.00 0.00 70 1002.8
20260505070836 15 257 0.0 4.8 0.00 0.00 0.00 69 1002.6
20260505070317 15 220 0.0 1.6 0.00 0.00 0.00 69 1002.7
20260505064837 16 218 0.0 4.8 0.00 0.00 0.00 68 1002.7
20260505064317 16 227 1.6 8.0 0.00 0.00 0.00 68 1002.7
20260505062834 16 243 1.6 11.3 0.00 0.00 0.00 68 1002.6
20260505061836 16 250 0.0 6.4 0.00 0.00 0.00 67 1002.5
20260505060832 16 255 1.6 8.0 0.00 0.00 0.00 67 1002.5
20260505055832 16 256 1.6 8.0 0.00 0.00 0.00 66 1002.6
20260505054830 16 270 1.6 11.3 0.00 0.00 0.00 66 1002.5
20260505053830 16 252 1.6 16.1 0.00 0.00 0.00 66 1002.6
20260505052828 16 280 3.2 12.9 0.00 0.00 0.00 66 1002.7
20260505051829 17 241 1.6 8.0 0.00 0.00 0.00 65 1002.7
20260505050827 17 268 1.6 9.7 0.00 0.00 0.00 65 1002.9
20260505040828 18 274 3.2 14.5 0.00 0.00 0.00 62 1002.8
20260505040311 18 236 1.6 12.9 0.00 0.00 0.00 62 1002.6
20260505034824 18 255 3.2 11.3 0.00 0.00 0.00 62 1002.8
20260505033822 18 256 1.6 12.9 0.00 0.00 0.00 61 1002.8
20260505032822 18 222 1.6 11.3 0.00 0.00 0.00 60 1002.9
20260505032311 18 236 1.6 9.7 0.00 0.00 0.00 60 1002.7
20260505030822 19 249 4.8 16.1 0.00 0.00 0.00 59 1002.8
20260505025822 19 249 4.8 14.5 0.00 0.00 0.00 59 1002.7
20260505024823 19 231 3.2 16.1 0.00 0.00 0.00 58 1002.7
20260505023822 20 250 4.8 19.3 0.00 0.00 0.00 57 1002.5
20260505022821 20 250 3.2 19.3 0.00 0.00 0.00 55 1002.6
20260505021821 20 263 4.8 12.9 0.00 0.00 0.00 53 1002.5
20260505020819 20 206 3.2 16.1 0.00 0.00 0.00 49 1002.5
20260505015820 20 156 3.2 19.3 0.00 0.00 0.00 45 1002.3
20260505014819 21 196 3.2 11.3 0.00 0.00 0.00 43 1002.2
20260505013818 21 243 3.2 12.9 0.00 0.00 0.00 42 1002.1
20260505013257 21 271 3.2 16.1 0.00 0.00 0.00 42 1001.8
20260505011817 21 226 1.6 12.9 0.00 0.00 0.00 42 1001.8
20260505010816 21 298 3.2 11.3 0.00 0.00 0.00 41 1001.6
20260505005816 21 228 3.2 12.9 0.00 0.00 0.00 41 1001.3
20260505004816 22 261 1.6 9.7 0.00 0.00 0.00 40 1001.2
20260505003814 22 253 1.6 9.7 0.00 0.00 0.00 39 1001.0
20260505002813 22 168 0.0 6.4 0.00 0.00 0.00 38 1001.1
20260505001813 22 253 1.6 9.7 0.00 0.00 0.00 37 1001.1
20260505000813 23 218 1.6 9.7 0.00 0.00 0.00 36 1001.1
20260504235813 23 254 1.6 8.0 0.00 0.00 0.00 35 1001.0
20260504234813 24 189 1.6 12.9 0.00 0.00 0.00 34 1000.9
20260504234250 24 246 1.6 8.0 0.00 0.00 0.00 33 1000.7
20260504232814 25 239 1.6 9.7 0.00 0.00 0.00 30 1000.6
20260504231824 25 226 1.6 11.3 0.00 0.00 0.00 30 1000.6
20260504230813 25 233 0.0 6.4 0.00 0.00 0.00 30 1000.6
20260504225811 25 278 0.0 8.0 0.00 0.00 0.00 30 1000.4
20260504225732 25 265 3.2 9.7 0.00 0.00 0.00 29 1000.4
20260504223809 26 282 3.2 14.5 0.00 0.00 0.00 29 1000.4
20260504222809 26 277 3.2 14.5 0.00 0.00 0.00 29 1000.5
20260504222252 26 258 3.2 14.5 0.00 0.00 0.00 29 1000.7
20260504221249 26 265 3.2 11.3 0.00 0.00 0.00 29 1000.7
20260504215808 26 276 4.8 14.5 0.00 0.00 0.00 28 1000.6
20260504214808 26 276 6.4 19.3 0.00 0.00 0.00 28 1000.7
20260504213807 26 246 4.8 14.5 0.00 0.00 0.00 29 1000.7
20260504212809 26 197 4.8 17.7 0.00 0.00 0.00 28 1000.7
20260504211806 27 292 3.2 12.9 0.00 0.00 0.00 29 1000.7
20260504210806 27 303 3.2 19.3 0.00 0.00 0.00 29 1000.8
20260504205803 27 265 4.8 16.1 0.00 0.00 0.00 28 1000.7
20260504204804 27 256 1.6 9.7 0.00 0.00 0.00 29 1000.8
20260504203809 27 341 4.8 16.1 0.00 0.00 0.00 28 1000.8
20260504202807 27 311 3.2 14.5 0.00 0.00 0.00 27 1000.9
20260504202251 27 343 3.2 11.3 0.00 0.00 0.00 29 1001.2
20260504201240 27 308 3.2 12.9 0.00 0.00 0.00 29 1001.3
20260504195801 27 258 4.8 14.5 0.00 0.00 0.00 28 1001.3
20260504194802 27 346 3.2 16.1 0.00 0.00 0.00 28 1001.4
20260504194732 27 266 3.2 11.3 0.00 0.00 0.00 28 1001.5
20260504192800 27 334 3.2 12.9 0.00 0.00 0.00 29 1001.5
20260504192700 27 277 1.6 14.5 0.00 0.00 0.00 30 1001.7
20260504191951 27 262 4.8 17.7 0.00 0.00 0.00 28 1001.5
20260504185800 27 280 3.2 14.5 0.00 0.00 0.00 29 1001.7
20260504184759 26 318 3.2 14.5 0.00 0.00 0.00 28 1002.0
20260504183800 26 335 4.8 12.9 0.00 0.00 0.00 28 1002.4
20260504182801 26 322 6.4 19.3 0.00 0.00 0.00 29 1002.3
20260504182242 26 262 3.2 11.3 0.00 0.00 0.00 30 1002.3
20260504180800 26 222 4.8 19.3 0.00 0.00 0.00 33 1002.4
20260504175800 25 213 1.6 16.1 0.00 0.00 0.00 32 1002.6
20260504174800 26 266 3.2 14.5 0.00 0.00 0.00 36 1002.8
20260504173759 25 220 3.2 12.9 0.00 0.00 0.00 35 1002.7
20260504172800 25 301 1.6 11.3 0.00 0.00 0.00 35 1002.9
20260504171759 25 305 3.2 16.1 0.00 0.00 0.00 35 1003.2
20260504170800 25 290 6.4 16.1 0.00 0.00 0.00 35 1003.4
20260504150756 21 218 4.8 12.9 0.00 0.00 0.00 48 1004.1
20260504140755 20 286 1.6 8.0 0.00 0.00 0.00 56 1004.4
20260504140232 19 258 4.8 9.7 0.00 0.00 0.00 57 1004.5
20260504130754 16 257 3.2 11.3 0.00 0.00 0.00 66 1004.5